This demonstration page uses our WeatherBlox Daily Observations layout. Learn more.

Left ArrowRight Arrow

44.8408, -93.29828

Hourly Observations for March 21, 2020

Temp ( °F °C ) Dew Point ( °F °C ) Humidity (%) Winds ( mph kmh ) Pressure ( in mb ) Visibility ( mi km ) Precip ( " mm )
12:53 am 00:53 Clear 23 -5 10 -12.2 57 57 Calm 30.63 1037 10 16 0.00 0.00
1:53 am 01:53 Clear 21 -6.1 11 -11.7 65 65 Calm 30.63 1037 10 16 0.00 0.00
2:53 am 02:53 Clear 23 -5 8 -13.3 53 53 ESE 8 13 30.63 1037 10 16 0.00 0.00
3:53 am 03:53 Clear 22 -5.6 8 -13.3 55 55 SE 8 13 30.61 1037 10 16 0.00 0.00
4:53 am 04:53 Mostly Clear 21 -6.1 8 -13.3 57 57 SE 7 11 30.60 1036 10 16 0.00 0.00
5:53 am 05:53 Mostly Clear 21 -6.1 8 -13.3 57 57 SE 9 15 30.61 1037 10 16 0.00 0.00
6:53 am 06:53 Partly Cloudy 20 -6.7 6 -14.4 55 55 SE 7 11 30.61 1037 10 16 0.00 0.00
7:53 am 07:53 Mostly Sunny 21 -6.1 7 -13.9 54 54 E 7 11 30.62 1037 10 16 0.00 0.00
8:53 am 08:53 Mostly Sunny 23 -5 10 -12.2 57 57 SE 8 13 30.61 1037 10 16 0.00 0.00
9:53 am 09:53 Mostly Sunny 26 -3.3 11 -11.7 53 53 SE 9 15 30.61 1037 10 16 0.00 0.00
10:53 am 10:53 Mostly Sunny 29 -1.7 12 -11.1 49 49 SE 12 19 30.60 1036 10 16 0.00 0.00
11:53 am 11:53 Partly Cloudy 32 0 14 -10 47 47 ESE 13 20 30.59 1036 10 16 0.00 0.00
12:53 pm 12:53 Mostly Sunny 33 0.6 13 -10.6 43 43 SSE 9 15 30.56 1035 10 16 0.00 0.00
1:53 pm 13:53 Partly Cloudy 34 1.1 13 -10.6 42 42 SE 10 17 30.54 1034 10 16 0.00 0.00
2:53 pm 14:53 Mostly Cloudy 36 2.2 14 -10 40 40 S 10 17 30.50 1033 10 16 0.00 0.00
3:53 pm 15:53 Cloudy 34 1.1 15 -9.4 46 46 S 13 20 30.48 1032 10 16 0.00 0.00
4:53 pm 16:53 Cloudy 34 1.1 16 -8.9 48 48 SSE 13 20 30.47 1032 10 16 0.00 0.00
5:53 pm 17:53 Cloudy with Light Snow 33 0.6 18 -7.8 54 54 SSE 15 24 30.45 1031 9 14 0.00 0.00
6:53 pm 18:53 Cloudy with Light Snow 32 0 20 -6.7 61 61 SE 13 20 30.44 1031 9 14 0.00 0.00
7:53 pm 19:53 Cloudy with Light Snow 32 0 21 -6.1 64 64 SE 13 20 30.44 1031 9 14 0.00 0.00
8:53 pm 20:53 Cloudy with Light Snow 32 0 22 -5.6 66 66 SE 16 26 30.43 1031 8 13 0.00 0.00
9:53 pm 21:53 Cloudy with Light Snow 31 -0.6 24 -4.4 76 76 SSE 12 19 30.43 1031 4 6 0.00 0.00
10:53 pm 22:53 Cloudy with Light Snow 30 -1.1 25 -3.9 82 82 SE 12 19 30.44 1031 7 11 0.00 0.00
11:53 pm 23:53 Cloudy with Light Snow 30 -1.1 25 -3.9 82 82 SE 12 19 30.42 1030 9 14 0.00 0.00

Powered by AerisWeather